QPF
0.00 0.00 0.00 0.00 0.00 0.00 0.00 0.00 0.00 0.00 0.00 0.00 0.00 0.00 0.00 0.00 0.00 0.00 0.00 0.00 0.00 0.00 0.00 0.00 0.00 0.00 0.00 0.00 0.00 0.00 0.03 0.06 0.01 0.01 0.00 0.00 0.00 0.00 0.00 0.00 0.00 0.00 0.00 0.00
0.00 0.00 0.00 0.00 0.00 0.00 0.00 0.00 0.00 0.00 0.00 0.00 0.00 0.00 0.00 0.00 0.00 0.00 0.00 0.00 0.00 0.00 0.00 0.00 0.00 0.00 0.00 0.01 0.00 0.00 0.04 0.04 0.01 0.00 0.00 0.00 0.00 0.00 0.00 0.00 0.00 0.00 0.00 0.00
0.00 0.00 0.00 0.00 0.00 0.00 0.00 0.00 0.00 0.00 0.00 0.00 0.00 0.00 0.00 0.00 0.00 0.00 0.00 0.00 0.00 0.00 0.00 0.00 0.00 0.00 0.01 0.01 0.01 0.01 0.03 0.01 0.00 0.00 0.00 0.00 0.00 0.00 0.00 0.00 0.00 0.01 0.00 0.00
0.00 0.00 0.00 0.00 0.00 0.00 0.00 0.00 0.00 0.00 0.00 0.00 0.00 0.01 0.00 0.00 0.00 0.00 0.00 0.00 0.00 0.00 0.00 0.00 0.00 0.01 0.00 0.01 0.04 0.03 0.03 0.00 0.00 0.00 0.00 0.00 0.00 0.00 0.00 0.00 0.01 0.00 0.01 0.03
0.00 0.00 0.00 0.00 0.00 0.00 0.00 0.00 0.00 0.01 0.01 0.02 0.00 0.01 0.00 0.00 0.00 0.00 0.00 0.00 0.00 0.00 0.00 0.00 0.00 0.06 0.09 0.13 0.10 0.03 0.00 0.00 0.00 0.00 0.00 0.00 0.00 0.00 0.00 0.00 0.00 0.02 0.04 0.03
0.00 0.00 0.00 0.00 0.00 0.00 0.00 0.01 0.01 0.02 0.04 0.03 0.00 0.01 0.00 0.00 0.00 0.00 0.00 0.00 0.00 0.00 0.00 0.00 0.00 0.01 0.09 0.17 0.16 0.02 0.00 0.00 0.00 0.00 0.00 0.00 0.00 0.00 0.00 0.00 0.00 0.00 0.00 0.00
0.00 0.00 0.00 0.00 0.00 0.01 0.01 0.03 0.04 0.05 0.04 0.00 0.00 0.01 0.00 0.00 0.00 0.00 0.00 0.00 0.00 0.00 0.00 0.00 0.01 0.04 0.10 0.17 0.08 0.00 0.00 0.00 0.00 0.00 0.00 0.00 0.00 0.00 0.00 0.00 0.00 0.00 0.00 0.00
0.01 0.00 0.00 0.00 0.01 0.03 0.03 0.02 0.03 0.05 0.04 0.01 0.00 0.00 0.00 0.00 0.00 0.00 0.00 0.00 0.00 0.00 0.00 0.00 0.01 0.06 0.09 0.19 0.04 0.00 0.00 0.00 0.00 0.00 0.00 0.00 0.00 0.00 0.00 0.00 0.00 0.00 0.00 0.00
0.03 0.01 0.00 0.00 0.00 0.02 0.01 0.01 0.02 0.02 0.02 0.03 0.01 0.01 0.00 0.00 0.00 0.00 0.00 0.00 0.00 0.00 0.00 0.00 0.00 0.08 0.16 0.16 0.03 0.00 0.00 0.00 0.00 0.00 0.00 0.00 0.00 0.00 0.00 0.00 0.00 0.00 0.00 0.00
0.01 0.01 0.00 0.00 0.01 0.02 0.01 0.02 0.03 0.04 0.06 0.07 0.01 0.00 0.00 0.00 0.00 0.00 0.00 0.00 0.00 0.00 0.00 0.00 0.00 0.18 0.25 0.20 0.02 0.01 0.00 0.00 0.00 0.00 0.00 0.00 0.00 0.00 0.00 0.00 0.00 0.00 0.00 0.00
0.01 0.00 0.00 0.01 0.02 0.02 0.01 0.01 0.03 0.07 0.06 0.05 0.03 0.00 0.00 0.00 0.00 0.00 0.00 0.00 0.00 0.00 0.00 0.02 0.12 0.20 0.24 0.14 0.04 0.03 0.01 0.00 0.00 0.00 0.00 0.00 0.00 0.00 0.00 0.00 0.00 0.00 0.00 0.00
0.00 0.00 0.00 0.00 0.00 0.00 0.03 0.05 0.05 0.06 0.04 0.04 0.04 0.01 0.01 0.00 0.00 0.00 0.00 0.00 0.00 0.00 0.02 0.09 0.14 0.18 0.11 0.08 0.03 0.04 0.02 0.00 0.00 0.01 0.00 0.00 0.00 0.00 0.00 0.00 0.00 0.00 0.00 0.00
0.00 0.00 0.01 0.02 0.04 0.01 0.02 0.04 0.05 0.07 0.08 0.06 0.06 0.01 0.00 0.00 0.00 0.00 0.00 0.00 0.00 0.04 0.13 0.15 0.16 0.18 0.15 0.10 0.03 0.03 0.01 0.00 0.00 0.00 0.00 0.00 0.00 0.00 0.00 0.00 0.00 0.00 0.00 0.00
0.02 0.00 0.01 0.01 0.04 0.04 0.02 0.04 0.02 0.03 0.05 0.03 0.02 0.00 0.00 0.00 0.02 0.00 0.00 0.00 0.03 0.07 0.12 0.11 0.16 0.18 0.22 0.18 0.12 0.04 0.01 0.01 0.00 0.00 0.00 0.00 0.00 0.00 0.00 0.00 0.00 0.00 0.00 0.00
0.00 0.00 0.01 0.01 0.01 0.04 0.02 0.02 0.01 0.00 0.00 0.01 0.00 0.00 0.00 0.01 0.03 0.00 0.00 0.04 0.05 0.07 0.10 0.13 0.16 0.11 0.10 0.07 0.05 0.01 0.01 0.00 0.00 0.00 0.01 0.01 0.00 0.00 0.00 0.00 0.00 0.00 0.00 0.00
0.01 0.00 0.01 0.02 0.07 0.02 0.01 0.00 0.00 0.01 0.01 0.01 0.00 0.00 0.01 0.03 0.02 0.01 0.11 0.08 0.03 0.03 0.05 0.12 0.11 0.07 0.04 0.02 0.00 0.01 0.01 0.01 0.00 0.01 0.00 0.01 0.00 0.00 0.00 0.00 0.00 0.00 0.00 0.00
0.00 0.01 0.01 0.02 0.07 0.05 0.02 0.00 0.00 0.00 0.00 0.00 0.00 0.01 0.05 0.10 0.09 0.09 0.13 0.04 0.01 0.01 0.03 0.08 0.06 0.02 0.01 0.00 0.00 0.01 0.01 0.00 0.01 0.00 0.00 0.01 0.00 0.00 0.00 0.00 0.00 0.00 0.00 0.00
0.00 0.00 0.02 0.04 0.07 0.06 0.01 0.00 0.00 0.00 0.00 0.00 0.01 0.03 0.07 0.12 0.13 0.10 0.04 0.01 0.01 0.01 0.04 0.05 0.01 0.00 0.00 0.00 0.00 0.00 0.00 0.01 0.01 0.01 0.01 0.01 0.00 0.00 0.00 0.00 0.00 0.00 0.00 0.00
0.00 0.00 0.01 0.04 0.03 0.04 0.01 0.00 0.00 0.00 0.01 0.02 0.04 0.07 0.12 0.08 0.04 0.04 0.04 0.02 0.00 0.00 0.03 0.01 0.00 0.01 0.02 0.01 0.00 0.00 0.00 0.00 0.01 0.00 0.01 0.00 0.00 0.00 0.00 0.00 0.00 0.00 0.00 0.00
0.00 0.00 0.01 0.01 0.01 0.02 0.00 0.00 0.00 0.00 0.02 0.05 0.05 0.10 0.12 0.03 0.01 0.01 0.01 0.00 0.00 0.00 0.00 0.00 0.01 0.02 0.03 0.02 0.01 0.00 0.00 0.00 0.00 0.00 0.00 0.00 0.00 0.00 0.00 0.00 0.00 0.00 0.00 0.00
0.00 0.00 0.00 0.00 0.01 0.01 0.00 0.00 0.00 0.00 0.01 0.03 0.02 0.08 0.07 0.02 0.00 0.00 0.00 0.00 0.00 0.00 0.01 0.01 0.01 0.01 0.01 0.01 0.00 0.00 0.00 0.00 0.00 0.00 0.00 0.00 0.00 0.00 0.00 0.00 0.00 0.00 0.00 0.00
0.01 0.00 0.00 0.00 0.00 0.00 0.00 0.00 0.00 0.00 0.00 0.03 0.03 0.08 0.04 0.03 0.02 0.00 0.00 0.00 0.00 0.01 0.02 0.02 0.01 0.00 0.00 0.00 0.00 0.00 0.00 0.00 0.00 0.00 0.00 0.00 0.00 0.00 0.00 0.00 0.00 0.00 0.00 0.00
0.01 0.00 0.00 0.00 0.00 0.00 0.00 0.00 0.00 0.00 0.01 0.02 0.01 0.04 0.03 0.03 0.01 0.00 0.00 0.01 0.01 0.01 0.02 0.01 0.00 0.00 0.00 0.00 0.00 0.00 0.00 0.00 0.00 0.00 0.00 0.00 0.00 0.00 0.00 0.00 0.00 0.00 0.00 0.00
0.01 0.00 0.01 0.00 0.00 0.00 0.00 0.00 0.00 0.01 0.01 0.02 0.02 0.01 0.02 0.00 0.00 0.00 0.01 0.02 0.01 0.00 0.00 0.00 0.00 0.00 0.00 0.00 0.00 0.00 0.00 0.00 0.00 0.00 0.00 0.00 0.00 0.00 0.00 0.00 0.00 0.00 0.00 0.00
0.01 0.00 0.00 0.00 0.00 0.00 0.00 0.00 0.00 0.01 0.01 0.02 0.01 0.02 0.01 0.01 0.00 0.00 0.01 0.01 0.00 0.00 0.00 0.00 0.00 0.00 0.00 0.00 0.00 0.00 0.00 0.00 0.00 0.00 0.00 0.00 0.00 0.00 0.00 0.00 0.00 0.00 0.00 0.00
0.01 0.01 0.00 0.00 0.00 0.00 0.00 0.00 0.00 0.00 0.01 0.01 0.01 0.00 0.00 0.01 0.00 0.01 0.01 0.01 0.00 0.00 0.00 0.00 0.00 0.00 0.00 0.00 0.00 0.00 0.00 0.00 0.00 0.00 0.00 0.00 0.00 0.00 0.00 0.00 0.00 0.00 0.00 0.00
MSLP
1006.56 1006.84 1006.21 1005.75 1004.50 1004.04 1003.56 1002.91 1001.80 1001.27 1000.88 1001.26 1000.61 999.84 999.52 998.76 998.38 997.27 996.43 996.56 996.75 996.47 996.60 996.85 997.56 998.42 998.82 1000.65 1002.60 1003.83 1004.71 1005.36 1006.04 1006.50 1006.75 1006.69 1007.24 1007.88 1008.17 1008.69 1009.29 1010.30 1010.62 1011.15
1005.60 1004.51 1004.45 1004.65 1004.43 1004.05 1003.74 1003.16 1002.11 1001.48 1001.07 1001.10 1000.10 999.41 999.37 999.01 998.37 997.57 996.73 996.24 996.05 996.23 996.37 996.28 996.70 997.49 998.22 1000.37 1002.21 1003.31 1004.13 1004.87 1005.68 1006.32 1006.42 1006.36 1006.75 1007.46 1008.03 1008.77 1009.70 1010.24 1010.67 1011.31
1004.84 1004.25 1003.84 1003.97 1003.96 1003.63 1003.36 1003.11 1002.57 1001.97 1001.33 1000.77 1000.97 999.59 998.36 998.03 997.99 997.69 996.98 996.50 996.17 996.05 995.84 995.81 996.09 996.60 998.01 1000.19 1001.53 1002.67 1003.52 1004.40 1005.30 1005.85 1005.95 1006.29 1006.78 1007.42 1008.15 1009.34 1010.05 1010.51 1010.88 1011.46
1004.65 1003.80 1003.45 1003.24 1002.83 1003.15 1002.53 1003.16 1002.92 1002.74 1002.22 1000.83 1000.45 998.68 997.67 996.54 996.27 996.31 996.33 996.23 996.21 995.67 995.29 995.18 995.55 995.99 997.73 999.75 1001.10 1001.99 1002.98 1003.86 1004.82 1005.29 1005.37 1006.04 1006.47 1007.30 1008.36 1009.39 1010.91 1011.41 1011.67 1012.06
1004.42 1004.18 1003.62 1003.09 1002.81 1002.96 1003.17 1003.04 1003.50 1003.27 1002.70 1002.11 1000.00 999.16 995.65 995.64 994.30 994.10 994.40 994.90 995.07 994.99 994.78 994.58 994.50 995.11 997.68 999.33 1000.70 1001.38 1002.66 1003.23 1004.07 1004.97 1005.45 1006.38 1006.76 1008.44 1009.83 1010.76 1011.39 1011.80 1012.32 1012.83
1004.48 1003.71 1002.99 1002.29 1002.38 1002.64 1003.63 1004.33 1003.88 1003.49 1003.22 1001.55 999.08 998.63 995.18 994.35 993.10 992.48 992.53 992.90 993.51 993.96 994.05 994.09 993.74 994.62 997.18 998.74 1000.25 1001.36 1002.56 1002.57 1003.87 1004.15 1005.54 1006.81 1007.78 1009.05 1009.59 1010.80 1011.69 1012.28 1012.72 1013.48
1003.50 1002.13 1000.90 1001.15 1001.78 1002.50 1003.43 1004.64 1004.21 1003.70 1002.77 998.82 997.75 996.90 994.13 992.89 992.22 991.41 991.17 991.38 991.86 992.71 992.92 993.12 993.25 993.89 995.71 997.41 998.85 1000.24 1001.29 1002.43 1003.37 1004.17 1006.15 1007.66 1007.96 1008.52 1009.58 1010.89 1011.73 1012.51 1013.12 1013.77
1004.54 1002.39 1001.91 1002.39 1003.11 1003.25 1004.33 1005.41 1004.76 1002.94 1000.83 998.38 996.26 994.60 992.73 992.82 992.13 991.08 990.98 990.46 990.60 991.32 991.79 991.35 991.95 993.15 994.61 996.47 997.65 998.45 999.96 1001.49 1002.75 1004.52 1006.17 1007.06 1007.83 1008.55 1009.87 1011.01 1011.59 1012.31 1013.29 1014.29
1006.65 1004.37 1003.63 1003.43 1003.67 1004.27 1004.96 1005.19 1004.68 1004.17 1002.08 999.73 996.42 994.87 992.81 991.78 991.26 991.17 991.18 990.39 989.73 990.33 989.98 990.61 991.41 993.75 995.55 996.72 997.87 998.67 999.48 1000.72 1002.82 1004.26 1005.40 1006.70 1007.41 1008.66 1010.01 1010.94 1011.61 1012.94 1013.91 1014.76
1008.96 1006.95 1004.82 1003.12 1003.04 1003.11 1004.42 1005.02 1005.45 1004.26 1001.55 998.97 996.83 994.82 993.20 991.77 991.35 991.19 990.83 990.84 989.49 988.57 989.67 989.73 991.79 994.83 995.78 996.18 997.84 999.27 1000.21 1000.82 1002.53 1004.20 1005.61 1006.31 1007.63 1009.08 1010.29 1011.29 1012.44 1013.14 1013.94 1014.76
1010.35 1009.32 1005.24 1004.02 1002.74 1002.16 1003.99 1004.55 1004.28 1002.92 1001.15 998.85 996.39 994.28 993.97 993.33 992.29 990.72 990.73 990.40 988.57 988.16 989.05 989.11 992.56 994.60 995.80 996.56 998.17 999.82 1000.22 1000.68 1003.05 1005.01 1006.03 1006.93 1008.33 1009.76 1010.89 1011.82 1012.72 1013.52 1014.37 1015.02
1010.41 1009.27 1006.28 1003.29 1001.30 1000.84 1001.63 1002.32 1002.54 1001.75 999.83 998.15 996.86 994.80 995.53 994.74 993.83 992.35 990.54 989.66 988.41 988.37 988.80 990.34 993.71 995.10 993.87 994.34 998.56 1000.35 1000.51 1001.53 1003.92 1005.51 1006.60 1007.71 1008.79 1010.31 1011.28 1012.39 1013.23 1014.09 1014.68 1015.25
1010.71 1009.42 1006.44 1002.16 1000.74 1002.13 1002.21 1001.93 1001.47 1000.73 1000.33 998.73 997.82 995.75 995.37 995.13 994.40 993.34 991.77 990.14 989.57 988.76 989.83 992.60 994.77 997.94 998.37 998.15 999.49 1000.67 1001.02 1002.90 1004.90 1006.26 1007.31 1008.16 1009.47 1010.85 1011.87 1012.75 1013.55 1014.35 1015.02 1015.64
1009.92 1009.00 1007.11 1004.17 1001.71 1001.95 1001.95 1001.77 1000.54 999.81 999.62 998.47 997.26 996.12 995.83 995.02 994.37 993.75 992.48 990.59 990.09 990.52 993.39 994.53 996.75 994.75 997.35 999.38 1000.26 1000.79 1002.34 1004.53 1005.59 1006.81 1007.82 1008.84 1010.23 1011.34 1012.41 1013.25 1014.09 1014.86 1015.65 1016.18
1009.85 1008.14 1006.14 1003.85 1002.53 1001.72 1001.11 1000.74 999.67 999.12 998.91 998.64 997.40 996.14 995.15 995.01 994.82 994.19 992.65 990.80 992.03 992.95 995.08 996.36 997.68 998.99 999.73 1000.30 1000.94 1002.21 1004.02 1005.17 1006.15 1007.05 1008.26 1009.55 1010.81 1011.89 1013.03 1013.90 1014.74 1015.67 1016.34 1016.86
1009.11 1007.53 1005.65 1002.50 1000.52 999.96 1000.04 1000.47 1000.87 1000.27 1000.04 999.47 998.98 996.59 995.94 995.13 995.27 994.39 992.50 992.31 993.61 994.09 995.97 997.60 999.39 999.99 1000.29 1000.89 1001.91 1003.25 1004.95 1005.70 1006.44 1007.75 1009.07 1010.54 1011.60 1012.73 1013.85 1014.79 1015.65 1016.53 1017.19 1017.55
1008.71 1007.63 1005.65 1001.83 1000.10 1000.16 1001.38 1003.05 1003.36 1002.76 1002.13 1001.91 1000.20 997.48 996.81 996.31 994.64 992.82 992.00 993.24 994.21 995.51 996.63 998.52 999.73 1000.24 1001.21 1002.37 1002.43 1003.67 1005.09 1006.00 1007.28 1008.96 1010.33 1011.57 1012.59 1013.61 1014.51 1015.44 1016.18 1017.17 1017.81 1018.21
1008.11 1006.91 1005.12 1002.23 1000.28 1000.36 1002.54 1004.16 1004.73 1003.99 1002.93 1002.32 1000.94 999.25 996.50 996.09 993.82 993.13 993.70 994.26 995.65 997.04 998.18 999.63 999.79 1000.81 1001.77 1002.10 1003.50 1004.60 1005.67 1007.02 1008.61 1009.99 1011.19 1012.37 1013.30 1014.14 1015.11 1016.14 1017.08 1017.83 1018.39 1018.87
1007.26 1006.50 1004.84 1002.79 1001.43 1001.35 1003.20 1005.06 1005.31 1004.96 1003.45 1002.67 1000.67 998.62 996.78 995.48 994.46 996.04 996.31 996.11 997.20 998.47 999.67 1000.31 1001.45 1001.97 1002.76 1003.87 1005.09 1006.07 1007.45 1008.57 1009.74 1011.05 1011.88 1012.95 1013.89 1014.84 1015.93 1016.95 1017.78 1018.35 1018.84 1019.38
1006.10 1005.10 1004.69 1003.58 1002.93 1003.35 1006.43 1005.87 1004.70 1004.79 1003.56 1002.41 1001.26 998.76 995.20 994.63 996.82 998.39 997.78 998.43 999.23 1000.02 1000.85 1001.45 1002.10 1002.61 1003.59 1005.01 1006.01 1006.99 1008.49 1009.67 1010.61 1011.72 1012.49 1013.48 1014.43 1015.62 1016.69 1017.71 1018.23 1018.76 1019.10 1019.57
1006.84 1005.92 1005.16 1004.52 1004.32 1005.40 1007.13 1006.87 1004.45 1004.77 1005.96 1003.73 1002.54 998.91 997.40 997.72 999.24 999.70 999.67 1000.66 1001.05 1001.44 1001.69 1001.89 1002.47 1003.37 1004.45 1005.59 1006.58 1007.85 1009.07 1010.11 1011.21 1012.15 1013.17 1014.48 1015.76 1016.68 1017.57 1018.22 1018.63 1018.97 1019.58 1020.33
1009.02 1008.38 1006.90 1006.47 1006.07 1007.21 1008.35 1007.86 1008.46 1007.73 1006.59 1004.94 1003.11 1001.64 1000.53 1000.97 1001.11 1001.02 1001.33 1002.05 1002.62 1002.84 1002.98 1003.18 1003.64 1004.81 1005.86 1006.82 1007.77 1008.89 1010.12 1011.13 1012.27 1013.82 1015.04 1016.16 1016.92 1017.61 1018.43 1018.99 1019.47 1019.96 1020.39 1020.54
1009.96 1010.79 1010.45 1010.21 1009.93 1010.50 1010.58 1011.04 1010.05 1007.99 1006.63 1005.59 1004.37 1004.11 1002.69 1002.71 1002.84 1002.72 1002.89 1003.25 1003.81 1003.99 1004.30 1004.93 1005.54 1006.54 1007.74 1008.68 1009.57 1010.41 1011.49 1012.47 1013.97 1015.17 1016.03 1016.81 1017.69 1018.30 1018.93 1019.43 1019.88 1020.38 1020.47 1020.52
1011.23 1011.48 1011.30 1011.25 1011.09 1011.53 1011.39 1011.07 1010.79 1009.25 1007.56 1007.02 1006.32 1005.51 1004.77 1004.51 1004.67 1004.51 1004.62 1004.79 1005.09 1005.65 1006.02 1006.80 1007.53 1008.36 1009.43 1010.61 1011.40 1012.08 1012.78 1013.66 1014.65 1015.84 1016.79 1017.59 1018.20 1018.85 1019.52 1019.93 1020.22 1020.56 1021.12 1021.29
1012.55 1012.43 1012.39 1011.80 1011.89 1011.67 1011.44 1011.97 1011.47 1009.98 1009.42 1008.72 1008.25 1007.88 1007.27 1006.61 1006.61 1006.27 1006.33 1006.47 1006.88 1007.30 1008.00 1008.70 1009.44 1010.16 1010.97 1011.83 1012.55 1013.27 1014.02 1014.71 1015.43 1016.43 1017.45 1018.09 1018.75 1019.53 1020.81 1021.99 1022.27 1023.46 1024.43 1023.37
1013.74 1013.99 1013.79 1013.27 1013.68 1013.93 1013.08 1012.68 1011.81 1010.85 1010.40 1010.15 1009.55 1009.69 1009.56 1008.82 1008.70 1008.37 1008.24 1008.42 1008.55 1009.07 1009.88 1010.52 1011.13 1011.59 1012.28 1013.07 1013.87 1014.52 1015.22 1015.73 1016.36 1017.01 1017.75 1018.39 1019.14 1020.05 1021.07 1022.51 1024.24 1025.61 1025.50 1025.51
Thickness
5602 5583 5579 5586 5604 5604 5603 5602 5608 5619 5629 5612 5613 5621 5628 5647 5658 5674 5697 5708 5722 5738 5758 5770 5777 5783 5793 5792 5787 5784 5783 5784 5783 5782 5782 5787 5784 5785 5787 5787 5783 5775 5772 5768
5596 5594 5603 5600 5599 5595 5591 5588 5596 5612 5621 5612 5617 5618 5623 5629 5636 5657 5676 5694 5714 5728 5743 5760 5771 5779 5785 5785 5781 5778 5781 5781 5780 5778 5782 5788 5787 5786 5785 5783 5774 5769 5766 5761
5589 5601 5609 5598 5591 5588 5587 5582 5588 5593 5609 5614 5598 5600 5621 5631 5635 5647 5662 5685 5706 5718 5733 5753 5765 5776 5780 5776 5777 5774 5776 5777 5776 5779 5783 5784 5785 5781 5777 5768 5764 5762 5759 5753
5593 5605 5599 5595 5593 5591 5580 5590 5587 5581 5581 5582 5606 5582 5612 5632 5633 5641 5656 5675 5692 5712 5732 5751 5761 5771 5774 5773 5772 5774 5775 5772 5774 5779 5780 5777 5776 5769 5768 5760 5751 5748 5746 5743
5587 5582 5582 5580 5585 5588 5574 5588 5576 5576 5575 5572 5588 5576 5616 5634 5639 5648 5663 5675 5694 5710 5728 5746 5763 5773 5770 5769 5769 5770 5768 5772 5773 5773 5775 5771 5770 5756 5750 5745 5742 5741 5737 5732
5582 5596 5588 5589 5590 5588 5578 5565 5570 5572 5563 5551 5587 5580 5607 5625 5643 5659 5669 5685 5698 5710 5726 5745 5766 5775 5766 5766 5762 5759 5761 5771 5767 5772 5767 5760 5753 5747 5746 5740 5735 5732 5729 5723
5587 5596 5607 5601 5584 5584 5571 5549 5544 5544 5544 5578 5608 5590 5616 5640 5653 5666 5672 5688 5703 5714 5726 5742 5758 5771 5768 5762 5762 5762 5766 5764 5767 5766 5754 5747 5749 5749 5743 5736 5730 5726 5722 5717
5563 5575 5585 5580 5566 5564 5550 5537 5536 5544 5566 5590 5619 5603 5624 5640 5649 5666 5669 5690 5708 5717 5731 5749 5767 5777 5773 5764 5765 5767 5766 5762 5764 5756 5749 5749 5747 5744 5738 5731 5729 5724 5717 5709
5541 5560 5571 5566 5560 5550 5530 5526 5546 5531 5554 5563 5600 5607 5632 5649 5651 5653 5652 5670 5698 5715 5731 5750 5776 5755 5748 5756 5758 5764 5764 5761 5756 5753 5750 5745 5745 5740 5732 5726 5725 5715 5708 5702
5520 5525 5554 5565 5558 5554 5528 5533 5525 5526 5539 5552 5576 5595 5607 5635 5640 5644 5646 5655 5688 5718 5729 5760 5758 5729 5707 5747 5754 5757 5756 5755 5754 5749 5743 5742 5736 5731 5724 5719 5711 5709 5704 5699
5502 5491 5543 5546 5545 5551 5525 5520 5523 5540 5546 5553 5573 5597 5599 5601 5618 5645 5647 5663 5694 5716 5735 5767 5741 5724 5718 5738 5744 5746 5748 5750 5741 5737 5734 5729 5725 5720 5715 5710 5705 5702 5697 5693
5508 5495 5522 5546 5568 5571 5553 5542 5537 5534 5552 5569 5569 5578 5579 5592 5602 5617 5644 5665 5697 5723 5745 5745 5725 5733 5740 5721 5733 5737 5739 5734 5733 5730 5725 5719 5718 5710 5707 5701 5697 5694 5690 5686
5492 5501 5522 5559 5568 5532 5531 5536 5544 5546 5543 5545 5539 5560 5581 5581 5591 5607 5625 5664 5690 5724 5738 5717 5709 5672 5703 5707 5722 5728 5726 5726 5723 5719 5714 5711 5706 5701 5697 5694 5691 5687 5682 5678
5503 5498 5512 5537 5557 5544 5529 5529 5549 5556 5541 5550 5554 5564 5568 5579 5586 5598 5623 5668 5694 5699 5688 5698 5698 5700 5704 5706 5712 5718 5715 5715 5714 5710 5705 5700 5696 5693 5689 5685 5681 5678 5672 5669
5497 5510 5528 5539 5539 5538 5545 5547 5563 5562 5560 5547 5562 5565 5574 5576 5578 5593 5630 5673 5666 5680 5677 5683 5682 5692 5701 5700 5704 5706 5706 5708 5707 5703 5696 5691 5689 5685 5680 5676 5672 5666 5662 5658
5505 5515 5528 5550 5570 5571 5565 5561 5553 5556 5552 5548 5544 5558 5569 5582 5578 5595 5629 5649 5655 5673 5674 5676 5674 5683 5695 5699 5699 5701 5699 5698 5698 5691 5684 5681 5678 5674 5668 5664 5659 5653 5649 5647
5501 5505 5518 5554 5573 5564 5547 5523 5509 5514 5514 5498 5528 5560 5559 5549 5591 5625 5649 5652 5658 5665 5674 5672 5678 5686 5687 5691 5698 5696 5693 5691 5685 5677 5673 5668 5665 5662 5658 5654 5650 5643 5638 5635
5507 5515 5527 5551 5575 5563 5537 5498 5484 5486 5491 5491 5510 5535 5566 5572 5622 5641 5644 5653 5655 5661 5663 5666 5678 5679 5682 5690 5687 5686 5685 5680 5674 5668 5663 5659 5656 5653 5649 5644 5638 5633 5628 5624
5523 5517 5528 5545 5563 5570 5538 5493 5480 5479 5495 5507 5520 5555 5585 5596 5613 5606 5628 5647 5654 5656 5658 5666 5669 5676 5680 5680 5678 5677 5670 5666 5662 5656 5656 5652 5648 5644 5638 5632 5627 5623 5619 5613
5539 5543 5536 5544 5552 5557 5486 5489 5500 5498 5539 5515 5524 5558 5596 5633 5609 5602 5624 5636 5643 5650 5655 5661 5668 5674 5676 5671 5670 5667 5659 5654 5652 5649 5647 5644 5642 5634 5627 5620 5617 5613 5611 5606
5523 5529 5536 5547 5550 5532 5483 5484 5523 5551 5520 5506 5527 5571 5599 5609 5611 5612 5623 5625 5635 5644 5653 5664 5669 5669 5668 5667 5665 5659 5654 5649 5646 5643 5640 5633 5625 5620 5615 5611 5608 5606 5600 5593
5497 5501 5527 5535 5548 5538 5484 5495 5489 5489 5495 5520 5539 5564 5584 5592 5602 5613 5619 5622 5627 5636 5646 5655 5660 5657 5656 5656 5654 5648 5642 5640 5635 5626 5619 5614 5611 5608 5602 5598 5596 5591 5587 5585
5508 5487 5489 5488 5496 5481 5475 5460 5473 5500 5518 5529 5537 5552 5576 5587 5597 5608 5614 5619 5622 5630 5637 5641 5643 5642 5638 5637 5636 5632 5629 5627 5617 5610 5607 5604 5599 5596 5593 5590 5587 5583 5582 5581
5487 5487 5484 5484 5484 5476 5473 5473 5476 5500 5521 5528 5535 5546 5566 5581 5590 5600 5606 5612 5616 5619 5624 5627 5627 5625 5622 5619 5617 5616 5615 5613 5608 5601 5596 5592 5590 5587 5584 5582 5581 5579 5575 5573
5480 5481 5481 5492 5488 5482 5486 5471 5476 5498 5510 5521 5529 5535 5550 5566 5577 5591 5597 5601 5603 5607 5609 5610 5610 5609 5608 5607 5606 5604 5601 5599 5596 5591 5585 5583 5581 5577 5567 5558 5560 5551 5541 5550
5468 5470 5479 5488 5468 5463 5467 5469 5480 5497 5507 5516 5526 5527 5534 5548 5560 5573 5585 5589 5595 5597 5596 5596 5596 5597 5597 5595 5592 5590 5589 5587 5583 5581 5579 5577 5573 5568 5560 5550 5539 5529 5528 5526